{"data":{"norad_id":57507,"epoch":"2026-09-20T16:30:35.445600Z","epoch_age_seconds":111707,"freshness":"FRESH","line1":"1 57507U 23113N   26263.68791025 -.00000342  00000+0 -28980-5 0  9993","line2":"2 57507  43.0050 351.6998 0001755 274.2423  85.8228 15.27576752173530","mean_motion":15.27576752,"eccentricity":0.0001755,"inclination_deg":43.005,"raan_deg":351.6998,"arg_perigee_deg":274.2423,"mean_anomaly_deg":85.8228,"bstar":-2.898e-6,"rev_number":17353,"period_min":94.266949147705,"perigee_km":481.85468187063,"apogee_km":484.26296160406,"semimajor_km":6861.1958217373,"source":"CELESTRAK","updated_at":"2026-09-21T09:00:33.634318Z"}}